Regional Weather Roundup
Issued by NWS

Home | Current Version | Previous Version | Text Only | Print | Product List | Glossary Off
Versions: 1 2 3 4 5 6 7 8 9 10 11 12 13 14 15 16 17 18 19 20 21 22 23 24 25 26 27 28 29 30 31 32 33 34 35 36 37 38 39 40 41 42 43 44 45 46 47 48 49 50

000
ASUS45 KBOU 031407
RWRCO

WEATHER ROUNDUP FOR COLORADO
NATIONAL WEATHER SERVICE DENVER/BOULDER CO
800 AM MDT THU SEP 03 2015

NOTE: "FAIR" INDICATES FEW OR NO CLOUDS BELOW 12000 FEET WITH NO
SIGNIFICANT WEATHER AND/OR OBSTRUCTIONS TO VISIBILITY.

COZ001>005-013-030-031-031500-
...NORTHWEST COLORADO...

CITY           SKY/WX    TMP DP  RH WIND       PRES   REMARKS
CRAIG          CLOUDY    53  49  86 CALM      30.14R
HAYDEN         NOT AVBL
MEEKER         PTSUNNY   55  49  80 CALM      30.16R
MOUNT WERNER   NOT AVBL
STEAMBOAT SPGS CLOUDY    50  46  84 CALM      30.19S
WALDEN         MOSUNNY   50  41  71 CALM      30.27S
$$

COZ006>008-011-031500-
...WEST CENTRAL VALLEYS...

CITY           SKY/WX    TMP DP  RH WIND       PRES   REMARKS
GRAND JUNCTION PTSUNNY   69  50  50 SE14      30.07R
MONTROSE       RAIN      59  55  87 SE13      30.21R FOG
EAGLE          SUNNY     54  46  76 CALM      30.23R
RIFLE          PTSUNNY   58  53  84 CALM      30.14R
DELTA          CLOUDY    68  53  58 E5        30.16R HAZE
NUCLA          CLOUDY    61  54  77 SE7       30.23R
$$

COZ017>023-064>068-031500-
...SOUTHWEST COLORADO...

CITY           SKY/WX    TMP DP  RH WIND       PRES   REMARKS
DURANGO        CLOUDY    60  50  69 CALM      30.24R
CORTEZ         CLOUDY    61  57  87 NE3       30.19R
PAGOSA SPRINGS CLOUDY    56  47  72 CALM      30.31R
TELLURIDE      CLOUDY    50  48  94 CALM      30.40R
WOLF CREEK PAS NOT AVBL
$$

COZ009-010-012-014-032>034-037-058>063-031500-
...CENTRAL COLORADO...

CITY           SKY/WX    TMP DP  RH WIND       PRES   REMARKS
ASPEN          PTSUNNY   56  45  66 CALM      30.26R
BUENA VISTA    CLOUDY    56  43  62 CALM      30.28S
COPPER MTN     CLOUDY    52  37  58 W9        30.55R
BERTHOUD PASS  PTSUNNY   41  30  65 NW5       30.59R
COTTONWOOD PAS CLOUDY    57  39  51 W5        30.39S
GUNNISON       CLOUDY    48  46  93 CALM      30.34R
KREMMLING      PTSUNNY   50  43  76 CALM      30.27S
LEADVILLE      PTSUNNY   46  42  86 CALM      30.39R
MONARCH PASS   CLOUDY    45  36  70 SW12      30.63R
SALIDA         CLOUDY    60  43  54 N7        30.33R
SUNLIGHT       PTSUNNY   52  45  76 CALM      30.48R
WILKERSON PASS CLOUDY    52  36  54 CALM      30.51R
$$

COZ069>075-031500-
...SAN LUIS VALLEY/SANGRE DE CRISTO MOUNTAINS...

CITY           SKY/WX    TMP DP  RH WIND       PRES   REMARKS
ALAMOSA        PTSUNNY   53  49  86 CALM      30.28R
LA VETA PASS   CLOUDY    46  37  71 S12G22    30.41R
SAGUACHE       CLOUDY    55  43  62 NW9       30.31R
$$

COZ035-036-038>040-031500-
...NORTHERN COLORADO FRONT RANGE...

CITY           SKY/WX    TMP DP  RH WIND       PRES   REMARKS
DENVER INTL AP CLOUDY    70  45  40 SW7       30.04S
DMNS CITY PARK   N/A     68  46  45 SW3G10    30.05R
AURORA         PTSUNNY   69  46  43 S6        30.07R
FRONT RANGE AP PTSUNNY   68  41  37 CALM      30.06
ERIE MUNI ARPT CLOUDY    64  52  63 CALM      30.03R
BOULDER MUN AP CLOUDY    68  46  45 SW3       30.04R
CENTENNIAL     CLOUDY    67  47  48 CALM      30.08R
BROOMFIELD     PTSUNNY   72  45  37 SW7       30.07R
FORT COLLINS   CLOUDY    66  50  55 CALM      30.03R
LONGMONT       CLOUDY    66  52  59 CALM      30.04R
$$

COZ041-046-047-076>085-087-088-031500-
...PIKES PEAK/PALMER DIVIDE AND SOUTHERN FOOTHILLS...

CITY           SKY/WX    TMP DP  RH WIND       PRES   REMARKS
COLO. SPRINGS  PTSUNNY   73  43  33 NW9       30.09R
A. F. ACADEMY  CLOUDY    66  43  42 N8        30.11R
ELLICOTT       PTSUNNY  N/A N/A N/A N6        30.07R
FALCON         PTSUNNY   69  39  33 MISG      30.15R
FORT CARSON    CLOUDY    72  46  39 NW7       30.06R
LIMON          CLOUDY    66  47  50 W8        30.03R
MONUMENT HILL  CLOUDY    63  41  45 NW3       30.17R
TRINIDAD       PTSUNNY   63  46  54 W6        30.08R
$$

COZ042>045-048>051-090-091-031500-
...NORTHEAST COLORADO...

CITY           SKY/WX    TMP DP  RH WIND       PRES   REMARKS
GREELEY ARPT   PTSUNNY   64  48  55 W3        30.01R
AKRON          MOSUNNY   72  44  36 W9        29.97R
BURLINGTON     MOSUNNY   72  52  49 SW6       29.94R
WRAY             N/A     66  50  56 W5        29.90S
STERLING       MOSUNNY   63  52  67 SE3       29.93S
HOLYOKE        MOSUNNY   68  54  60 W6        29.90S
FORT MORGAN    MOSUNNY   62  50  66 W5        29.98R
$$

COZ086-089-092>099-031500-
...SOUTHEAST COLORADO...

CITY           SKY/WX    TMP DP  RH WIND       PRES   REMARKS
PUEBLO         MOSUNNY   73  44  35 CALM      29.98R
LA JUNTA       PTSUNNY   70  47  43 W3        29.95R
LAMAR          CLOUDY    69  56  62 CALM      29.91R
SPRINGFIELD      N/A     72  51  47 SW10      29.97S
$$



USA.gov is the U.S. government's official web portal to all federal, state and local government web resources and services.